Location: A�t �Alizem
(31.2076°N, 8.7872°W)
Time: 12:36:55
(UTC+00:00)

Hubble Space Telescope - Pass Details

Date: 05 October 2021
Orbit: 535 x 539 km, 28.5° (Epoch: 26 October)

Event Time Altitude Azimuth Distance (km) Brightness Sun altitude
Rises 05:48:05 0° 212° (SSW) 2,665 4.0 -10.1°
Reaches altitude 10° 05:51:18 10° 186° (S) 1,776 3.4 -9.4°
Maximum altitude 05:53:25 14° 155° (SSE) 1,553 3.5 -8.9°
Drops below altitude 10° 05:55:31 10° 124° (SE) 1,778 4.4 -8.5°
Sets 05:58:44 0° 98° (E) 2,670 6.7 -7.8°
